TimePST,TemperatureF,Dew PointF,Humidity,Sea Level PressureIn,VisibilityMPH,Wind Direction,Wind SpeedMPH,Gust SpeedMPH,PrecipitationIn,Events,Conditions,WindDirDegrees,DateUTC
12:33 AM,42.8,37.4,81,29.94,10.0,South,13.8,-,N/A,Rain,Light Rain,170,2013-02-25 08:33:00
12:38 AM,42.8,35.6,76,29.93,10.0,SSE,11.5,-,N/A,Rain,Light Rain,160,2013-02-25 08:38:00
12:58 AM,41.9,37.4,84,29.95,10.0,SSE,12.7,-,0.02,Rain,Light Rain,160,2013-02-25 08:58:00
1:33 AM,41.0,39.2,93,29.92,10.0,South,8.1,-,N/A,Rain,Light Rain,190,2013-02-25 09:33:00
1:38 AM,41.0,39.2,93,29.92,10.0,South,8.1,-,N/A,Rain,Light Rain,180,2013-02-25 09:38:00
1:43 AM,41.0,39.2,93,29.92,10.0,South,8.1,-,N/A,Rain,Light Rain,180,2013-02-25 09:43:00
1:48 AM,41.0,39.2,93,29.92,10.0,South,6.9,-,N/A,Rain,Light Rain,170,2013-02-25 09:48:00
1:53 AM,41.0,39.2,93,29.92,10.0,South,6.9,-,N/A,Rain,Light Rain,170,2013-02-25 09:53:00
1:58 AM,40.5,39.6,97,29.94,10.0,South,6.9,-,0.03,Rain,Light Rain,170,2013-02-25 09:58:00
2:33 AM,41.0,41.0,100,29.93,10.0,SSW,12.7,-,N/A,,Overcast,210,2013-02-25 10:33:00
2:45 AM,42.8,39.2,87,29.93,10.0,SSW,18.4,27.6,N/A,Rain,Light Rain,200,2013-02-25 10:45:00
2:58 AM,41.7,39.7,93,29.96,10.0,SSW,16.1,26.5,0.02,Rain,Light Rain,200,2013-02-25 10:58:00
3:03 AM,41.0,39.2,93,29.94,10.0,SSW,16.1,24.2,N/A,,Overcast,200,2013-02-25 11:03:00
3:13 AM,41.0,39.2,93,29.94,10.0,SSW,15.0,-,N/A,Rain,Light Rain,200,2013-02-25 11:13:00
3:25 AM,41.0,39.2,93,29.95,10.0,SSW,12.7,-,N/A,Rain,Light Rain,200,2013-02-25 11:25:00
3:27 AM,41.0,39.2,93,29.95,10.0,South,15.0,-,N/A,,Mostly Cloudy,190,2013-02-25 11:27:00
3:37 AM,41.0,39.2,93,29.95,10.0,South,13.8,-,N/A,,Mostly Cloudy,190,2013-02-25 11:37:00
3:58 AM,40.5,39.7,97,29.98,10.0,South,13.8,-,0.00,,Mostly Cloudy,190,2013-02-25 11:58:00
4:43 AM,41.0,39.2,93,29.98,10.0,SSW,12.7,-,N/A,,Mostly Cloudy,200,2013-02-25 12:43:00
4:47 AM,41.0,39.2,93,29.98,10.0,South,12.7,-,N/A,Rain,Light Rain,190,2013-02-25 12:47:00
4:58 AM,40.8,39.7,96,30.01,10.0,SSW,13.8,-,0.00,Rain,Light Rain,200,2013-02-25 12:58:00
5:03 AM,41.0,39.2,93,29.99,10.0,SSW,12.7,-,N/A,,Overcast,200,2013-02-25 13:03:00
5:27 AM,41.0,39.2,93,30.00,10.0,SSW,15.0,-,N/A,Rain,Light Rain,200,2013-02-25 13:27:00
5:42 AM,41.0,39.2,93,30.00,10.0,South,13.8,21.9,N/A,Rain,Light Rain,190,2013-02-25 13:42:00
5:47 AM,41.0,39.2,93,30.00,10.0,South,12.7,21.9,N/A,Rain,Light Rain,190,2013-02-25 13:47:00
5:58 AM,40.5,39.4,96,30.03,10.0,SSW,15.0,-,0.01,Rain,Light Rain,200,2013-02-25 13:58:00
6:18 AM,41.0,39.2,93,30.01,10.0,South,17.3,-,N/A,Rain,Light Rain,190,2013-02-25 14:18:00
6:21 AM,41.0,39.2,93,30.01,10.0,SSW,16.1,-,N/A,,Overcast,210,2013-02-25 14:21:00
6:44 AM,39.2,39.2,100,29.99,10.0,SSW,19.6,25.3,N/A,Rain,Light Rain,200,2013-02-25 14:44:00
6:49 AM,39.2,39.2,100,30.00,10.0,SSW,17.3,25.3,N/A,,Overcast,200,2013-02-25 14:49:00
6:52 AM,39.2,39.2,100,30.00,10.0,SSW,16.1,25.3,N/A,Rain,Light Rain,200,2013-02-25 14:52:00
6:57 AM,39.2,37.4,93,30.00,10.0,SSW,18.4,25.3,N/A,Rain,Light Rain,200,2013-02-25 14:57:00
6:58 AM,39.9,38.3,94,30.02,10.0,SSW,18.4,25.3,0.00,Rain,Light Rain,200,2013-02-25 14:58:00
7:33 AM,39.2,37.4,93,30.03,10.0,SSW,13.8,25.3,N/A,,Overcast,210,2013-02-25 15:33:00
7:38 AM,39.2,37.4,93,30.03,10.0,SSW,13.8,23.0,N/A,,Mostly Cloudy,210,2013-02-25 15:38:00
7:53 AM,39.2,37.4,93,30.04,10.0,SSW,12.7,23.0,N/A,,Mostly Cloudy,200,2013-02-25 15:53:00
7:58 AM,39.4,37.9,95,30.06,10.0,SSW,17.3,23.0,0.01,,Mostly Cloudy,210,2013-02-25 15:58:00
8:03 AM,39.2,37.4,93,30.04,10.0,SSW,15.0,25.3,N/A,,Mostly Cloudy,200,2013-02-25 16:03:00
8:09 AM,39.2,37.4,93,30.06,10.0,SSW,16.1,25.3,N/A,,Overcast,200,2013-02-25 16:09:00
8:58 AM,40.5,38.5,93,30.07,10.0,SSW,17.3,26.5,N/A,,Overcast,210,2013-02-25 16:58:00
9:00 AM,41.0,39.2,93,30.06,10.0,SW,15.0,26.5,N/A,Rain,Light Rain,220,2013-02-25 17:00:00
9:05 AM,41.0,39.2,93,30.05,8.0,SSW,16.1,-,N/A,Rain,Light Rain,210,2013-02-25 17:05:00
9:21 AM,41.0,39.2,93,30.06,10.0,SW,17.3,26.5,N/A,,Mostly Cloudy,220,2013-02-25 17:21:00
9:31 AM,41.0,39.2,93,30.06,10.0,SSW,18.4,27.6,N/A,,Mostly Cloudy,210,2013-02-25 17:31:00
9:58 AM,42.4,38.8,87,30.09,10.0,SW,20.7,27.6,0.00,,Clear,220,2013-02-25 17:58:00
10:58 AM,45.1,38.5,77,30.12,10.0,SW,18.4,29.9,N/A,,Mostly Cloudy,230,2013-02-25 18:58:00
11:51 AM,46.4,37.4,71,30.12,10.0,SW,18.4,35.7,N/A,Rain,Light Rain,230,2013-02-25 19:51:00
11:56 AM,46.4,37.4,71,30.12,10.0,SW,20.7,31.1,N/A,Rain,Light Rain,230,2013-02-25 19:56:00
12:01 PM,46.4,37.4,71,30.12,10.0,SW,19.6,28.8,N/A,Rain,Light Rain,220,2013-02-25 20:01:00
12:10 PM,44.6,39.2,81,30.13,5.0,SW,23.0,29.9,N/A,Rain,Light Rain,230,2013-02-25 20:10:00
12:42 PM,42.8,39.2,87,30.14,10.0,SW,13.8,23.0,N/A,,Mostly Cloudy,230,2013-02-25 20:42:00
12:47 PM,44.6,39.2,81,30.14,10.0,SW,11.5,-,N/A,,Scattered Clouds,230,2013-02-25 20:47:00
12:58 PM,46.6,37.6,71,30.15,10.0,WSW,18.4,27.6,0.03,,Partly Cloudy,250,2013-02-25 20:58:00
1:58 PM,48.7,34.0,57,30.15,10.0,WSW,20.7,-,N/A,,Partly Cloudy,240,2013-02-25 21:58:00
2:58 PM,49.1,32.0,52,30.17,10.0,WSW,20.7,26.5,N/A,,Partly Cloudy,240,2013-02-25 22:58:00
3:58 PM,46.6,33.6,61,30.18,10.0,WSW,17.3,34.5,N/A,,Clear,240,2013-02-25 23:58:00
4:07 PM,44.6,33.8,66,30.16,10.0,WSW,20.7,34.5,N/A,Rain,Light Rain,240,2013-02-26 00:07:00
4:15 PM,44.6,35.6,71,30.18,10.0,WSW,18.4,28.8,N/A,,Clear,240,2013-02-26 00:15:00
4:58 PM,44.6,35.1,69,30.20,10.0,SW,16.1,21.9,0.00,,Scattered Clouds,230,2013-02-26 00:58:00
5:58 PM,42.8,33.3,69,30.23,10.0,SSW,6.9,-,N/A,,Clear,200,2013-02-26 01:58:00
6:58 PM,41.0,34.0,76,30.25,10.0,SSW,9.2,18.4,N/A,,Scattered Clouds,210,2013-02-26 02:58:00
7:58 PM,38.8,34.0,83,30.27,10.0,SSE,4.6,-,N/A,,Clear,150,2013-02-26 03:58:00
8:13 PM,37.4,33.8,87,30.26,10.0,ESE,6.9,-,N/A,,Mostly Cloudy,120,2013-02-26 04:13:00
8:33 PM,37.4,33.8,87,30.27,10.0,SSE,10.4,-,N/A,,Scattered Clouds,160,2013-02-26 04:33:00
8:58 PM,37.0,34.2,89,30.30,10.0,South,10.4,-,N/A,,Partly Cloudy,170,2013-02-26 04:58:00
9:58 PM,35.6,33.8,93,30.31,10.0,South,5.8,-,N/A,,Clear,170,2013-02-26 05:58:00
10:58 PM,34.0,32.7,95,30.32,10.0,SSE,5.8,-,N/A,,Clear,150,2013-02-26 06:58:00
11:58 PM,32.9,32.4,98,30.33,10.0,SSE,2.3,-,N/A,,Clear,150,2013-02-26 07:58:00